Content
SEND FEEDBACK

Daily
Averages
Monthly
Summary
Italy

TURIN, ITALY


Home > Europe > Italy
Elevation: 941 feet     Latitude: 45 13N     Longitude: 007 39E

WEATHER
 
SELECT A DAY
Number of Records: 303,949;   Date Range: 7/1/96 - 7/23/14
 
SHARE

PRINT THIS DATA

[ ← Previous Day ]
WEATHER ALMANAC - JANUARY 23, 2013
[ Next Day → ]
[ °C ]   °F
Weather ElementAverageHighLow
Temperature37.2 °F41 °F (1:20 pm)32 °F (4:20 am)
Dewpoint33.1 °F37.4 °F (9:20 pm)28.4 °F (5:50 am)
Humidity85.8 %100 % (1:50 am)65 % (1:20 pm)
Barometer29.70 in29.74 in (10:50 am)29.68 in (12:50 am)
Wind Speed4.5 mph10.4 mph (6:20 pm)
Weather ElementAverage
Visibility4.2 mi
Wind DirectionSE (139.3 °)

Weather ElementTotal
Precipitation---
Heating Degree Days28.5 (Base 65)
Averaged from 46 records on January 23, 2013
WEATHER CONDITIONS BREAKOUT
WIND DIRECTION BREAKOUT
WEATHER BY HOUR - JANUARY 23, 2013
[ °C ]   °F
Local TimeTemperatureDewpointHumidityBarometerVisibilityWind DirectionWind SpeedGust SpeedPrecipitationEventsConditions
12:50 AM35.6 °F33.8 °F93 %29.68 in3.7 miNorth (350°)4.6 mphScattered Clouds
1:20 AM35.6 °F33.8 °F93 %29.68 in4.3 miCalmScattered Clouds
1:50 AM35.6 °F35.6 °F100 %29.68 in4.3 miCalmScattered Clouds
2:20 AM35.6 °F33.8 °F93 %29.68 in4.3 miVariable3.5 mphScattered Clouds
2:50 AM33.8 °F33.8 °F100 %29.71 in3.7 miCalmScattered Clouds
3:50 AM33.8 °F33.8 °F100 %29.71 in3.7 miNorth (10°)4.6 mphScattered Clouds
4:20 AM32.0 °F30.2 °F93 %29.68 in3.7 miNNW (340°)4.6 mphScattered Clouds
4:50 AM33.8 °F32.0 °F93 %29.68 in3.7 miVariable3.5 mphScattered Clouds
5:20 AM33.8 °F32.0 °F93 %29.71 in3.7 miVariable3.5 mphScattered Clouds
5:50 AM33.8 °F28.4 °F81 %29.68 in3.7 miWNW (300°)4.6 mphScattered Clouds
6:20 AM35.6 °F28.4 °F75 %29.68 in3.7 miNW (310°)4.6 mphScattered Clouds
6:50 AM35.6 °F33.8 °F93 %29.68 in5.0 miNNW (330°)4.6 mphScattered Clouds
7:20 AM33.8 °F32.0 °F93 %29.68 in5.0 miVariable4.6 mphScattered Clouds
7:50 AM33.8 °F30.2 °F87 %29.68 in3.7 miNorth (10°)6.9 mphMostly Cloudy
8:20 AM33.8 °F32.0 °F93 %29.71 in3.7 miSSE (150°)3.5 mphMostly Cloudy
8:50 AM33.8 °F32.0 °F93 %29.71 in2.5 miNorth (360°)3.5 mphMostly Cloudy
9:20 AM35.6 °F32.0 °F87 %29.71 in2.5 miVariable2.3 mphMostly Cloudy
9:50 AM35.6 °F30.2 °F81 %29.71 in3.7 miNNE (20°)6.9 mphMostly Cloudy
10:20 AM35.6 °F28.4 °F75 %29.71 in5.0 miNE (50°)6.9 mphMostly Cloudy
10:50 AM37.4 °F28.4 °F70 %29.74 in5.0 miNorth (350°)4.6 mphMostly Cloudy
11:20 AM37.4 °F32.0 °F81 %29.74 in5.0 miNorth (350°)4.6 mphMostly Cloudy
11:50 AM39.2 °F33.8 °F81 %29.71 in5.0 miNorth (350°)6.9 mphMostly Cloudy
12:20 PM39.2 °F33.8 °F81 %29.71 in3.7 miNorth (350°)6.9 mphMostly Cloudy
12:50 PM39.2 °F32.0 °F75 %29.71 in5.0 miNE (40°)4.6 mphMostly Cloudy
1:20 PM41.0 °F30.2 °F65 %29.71 in5.0 miNorth (350°)5.8 mphMostly Cloudy
1:50 PM41.0 °F32.0 °F70 %29.71 in3.7 miNNW (340°)8.1 mphMostly Cloudy
2:20 PM41.0 °F32.0 °F70 %29.71 in3.7 miNNW (340°)6.9 mphMostly Cloudy
2:50 PM41.0 °F32.0 °F70 %29.71 in5.0 miNE (40°)5.8 mphOvercast
3:20 PM41.0 °F32.0 °F70 %29.71 in5.0 miNE (40°)6.9 mphOvercast
3:50 PM41.0 °F32.0 °F70 %29.71 in6.2 miNorth (10°)5.8 mphOvercast
4:20 PM41.0 °F32.0 °F70 %29.71 in6.2 miNE (50°)4.6 mphOvercast
4:50 PM41.0 °F32.0 °F70 %29.71 in6.2 miNE (50°)5.8 mphOvercast
5:20 PM39.2 °F33.8 °F81 %29.71 in3.7 miNE (50°)3.5 mphRainLight Rain
5:50 PM39.2 °F35.6 °F87 %29.71 in3.7 miNNW (340°)5.8 mphRainLight Rain
6:20 PM39.2 °F35.6 °F87 %29.71 in3.7 miNNW (330°)10.4 mphRainRain
6:50 PM39.2 °F35.6 °F87 %29.71 in3.7 miNNW (340°)10.4 mphRainRain
7:20 PM39.2 °F35.6 °F87 %29.71 in3.7 miNNW (340°)6.9 mphRainLight Rain
7:50 PM37.4 °F35.6 °F93 %29.71 in3.7 miNorth (10°)3.5 mphRainLight Rain
8:20 PM37.4 °F35.6 °F93 %29.74 in3.7 miVariable1.2 mphRainRain
8:50 PM37.4 °F35.6 °F93 %29.71 in3.7 miESE (110°)3.5 mphRainRain
9:20 PM37.4 °F37.4 °F100 %29.71 in3.7 miVariable2.3 mphRainRain
9:50 PM37.4 °F37.4 °F100 %29.71 in3.7 miVariable1.2 mphRainRain
10:20 PM37.4 °F37.4 °F100 %29.71 in3.1 miVariable2.3 mphRainLight Rain
10:50 PM37.4 °F35.6 °F93 %29.71 in5.0 miVariable2.3 mphRainLight Rain
11:20 PM37.4 °F35.6 °F93 %29.71 in5.0 miVariable1.2 mphOvercast
11:50 PM37.4 °F35.6 °F93 %29.71 in5.0 miVariable1.2 mphOvercast
Hourly data recorded from LIMF, located miles away from Turin, Italy







STORIES FROM OUR PARTNERS